<?xml version="1.0" encoding="UTF-8" standalone="no" ?><gpx xmlns="http://www.topografix.com/GPX/1/1" xmlns:gpxx="http://www.garmin.com/xmlschemas/GpxExtensions/v3" xmlns:wptx1="http://www.garmin.com/xmlschemas/WaypointExtension/v1" xmlns:gpxtpx="http://www.garmin.com/xmlschemas/TrackPointExtension/v1" creator="GuideVTT.com" version="1.1" xmlns:xsi="http://www.w3.org/2001/XMLSchema-instance" xsi:schemaLocation="http://www.topografix.com/GPX/1/1 http://www.topografix.com/GPX/1/1/gpx.xsd http://www.garmin.com/xmlschemas/GpxExtensions/v3 http://www8.garmin.com/xmlschemas/GpxExtensionsv3.xsd http://www.garmin.com/xmlschemas/WaypointExtension/v1 http://www8.garmin.com/xmlschemas/WaypointExtensionv1.xsd http://www.garmin.com/xmlschemas/TrackPointExtension/v1 http://www.garmin.com/xmlschemas/TrackPointExtensionv1.xsd">
<metadata><link href="http://www.garmin.com"><text>Garmin International</text></link><time>2013-06-22T15:13:50Z</time></metadata>
<trk><name>morgins-montey.gpx</name><extensions><gpxx:TrackExtension><gpxx:DisplayColor>Cyan</gpxx:DisplayColor></gpxx:TrackExtension></extensions><trkseg>
<trkpt lat="46.25394656" lon="6.94680874"><ele>469.7675169528</ele><time>2008-10-29T22:26:02Z</time></trkpt>
<trkpt lat="46.25358911" lon="6.94670904"><ele>469.768463052</ele><time>2008-10-29T22:26:02Z</time></trkpt>
<trkpt lat="46.25273275" lon="6.94681974"><ele>478.7704466736</ele><time>2008-10-29T22:26:02Z</time></trkpt>
<trkpt lat="46.25296865" lon="6.94633725"><ele>483.7702636488</ele><time>2008-10-29T22:26:02Z</time></trkpt>
<trkpt lat="46.25253860" lon="6.94596374"><ele>490.7716065168</ele><time>2008-10-29T22:26:02Z</time></trkpt>
<trkpt lat="46.25220240" lon="6.94528059"><ele>488.7729490968</ele><time>2008-10-29T22:26:02Z</time></trkpt>
<trkpt lat="46.25191289" lon="6.94439117"><ele>500.7743835648</ele><time>2008-10-29T22:26:02Z</time></trkpt>
<trkpt lat="46.25138567" lon="6.94357254"><ele>511.7763062904</ele><time>2008-10-29T22:26:02Z</time></trkpt>
<trkpt lat="46.25081145" lon="6.94289160"><ele>527.7782593512</ele><time>2008-10-29T22:26:02Z</time></trkpt>
<trkpt lat="46.25038033" lon="6.94227798"><ele>542.7797850504</ele><time>2008-10-29T22:26:02Z</time></trkpt>
<trkpt lat="46.24952035" lon="6.94156537"><ele>550.7824096344</ele><time>2008-10-29T22:26:02Z</time></trkpt>
<trkpt lat="46.24875284" lon="6.94023439"><ele>575.7853392576</ele><time>2008-10-29T22:26:02Z</time></trkpt>
<trkpt lat="46.24774670" lon="6.93876842"><ele>606.7889405472</ele><time>2008-10-29T22:26:02Z</time></trkpt>
<trkpt lat="46.24717275" lon="6.93815618"><ele>611.7908326008</ele><time>2008-10-29T22:26:02Z</time></trkpt>
<trkpt lat="46.24676419" lon="6.93726798"><ele>621.7925416296</ele><time>2008-10-29T22:26:02Z</time></trkpt>
<trkpt lat="46.24661864" lon="6.93665180"><ele>626.7933348792</ele><time>2008-10-29T22:26:02Z</time></trkpt>
<trkpt lat="46.24678524" lon="6.93665026"><ele>625.7929687824</ele><time>2008-10-29T22:26:02Z</time></trkpt>
<trkpt lat="46.24635424" lon="6.93607104"><ele>629.7944334744</ele><time>2008-10-29T22:26:02Z</time></trkpt>
<trkpt lat="46.24594887" lon="6.93590326"><ele>632.7955933344</ele><time>2008-10-29T22:26:02Z</time></trkpt>
<trkpt lat="46.24530626" lon="6.93590921"><ele>633.7971191952</ele><time>2008-10-29T22:26:02Z</time></trkpt>
<trkpt lat="46.24489966" lon="6.93546701"><ele>634.7984618712</ele><time>2008-10-29T22:26:02Z</time></trkpt>
<trkpt lat="46.24480094" lon="6.93467890"><ele>634.7993165304</ele><time>2008-10-29T22:26:02Z</time></trkpt>
<trkpt lat="46.24510682" lon="6.93388703"><ele>654.799194336</ele><time>2008-10-29T22:26:02Z</time></trkpt>
<trkpt lat="46.24500885" lon="6.93327045"><ele>658.7999268984</ele><time>2008-10-29T22:26:02Z</time></trkpt>
<trkpt lat="46.24467427" lon="6.93296481"><ele>667.8010253808</ele><time>2008-10-29T22:26:02Z</time></trkpt>
<trkpt lat="46.24417553" lon="6.93320959"><ele>668.802001992</ele><time>2008-10-29T22:26:02Z</time></trkpt>
<trkpt lat="46.24386644" lon="6.93328108"><ele>665.8026733704</ele><time>2008-10-29T22:26:02Z</time></trkpt>
<trkpt lat="46.24367403" lon="6.93283691"><ele>660.8035278696</ele><time>2008-10-29T22:26:02Z</time></trkpt>
<trkpt lat="46.24383848" lon="6.93235511"><ele>666.8035277568</ele><time>2008-10-29T22:26:02Z</time></trkpt>
<trkpt lat="46.24409721" lon="6.93166660"><ele>680.8034056752</ele><time>2008-10-29T22:26:02Z</time></trkpt>
<trkpt lat="46.24395333" lon="6.93142781"><ele>691.803954972</ele><time>2008-10-29T22:26:02Z</time></trkpt>
<trkpt lat="46.24293222" lon="6.93195192"><ele>688.8060302592</ele><time>2008-10-29T22:26:02Z</time></trkpt>
<trkpt lat="46.24245499" lon="6.93168194"><ele>695.8073731272</ele><time>2008-10-29T22:26:02Z</time></trkpt>
<trkpt lat="46.24152400" lon="6.93107317"><ele>704.8101196632</ele><time>2008-10-29T22:26:02Z</time></trkpt>
<trkpt lat="46.24073812" lon="6.93097761"><ele>710.8120727088</ele><time>2008-10-29T22:26:02Z</time></trkpt>
<trkpt lat="46.24026104" lon="6.93074195"><ele>714.8134154808</ele><time>2008-10-29T22:26:02Z</time></trkpt>
<trkpt lat="46.23985535" lon="6.93050563"><ele>714.8145752448</ele><time>2008-10-29T22:26:02Z</time></trkpt>
<trkpt lat="46.23966417" lon="6.93033591"><ele>716.8151855184</ele><time>2008-10-29T22:26:02Z</time></trkpt>
<trkpt lat="46.23899668" lon="6.93010205"><ele>722.816955684</ele><time>2008-10-29T22:26:02Z</time></trkpt>
<trkpt lat="46.23833058" lon="6.93017689"><ele>730.818542424</ele><time>2008-10-29T22:26:02Z</time></trkpt>
<trkpt lat="46.23802071" lon="6.93007689"><ele>731.8193358504</ele><time>2008-10-29T22:26:02Z</time></trkpt>
<trkpt lat="46.23839997" lon="6.92973032"><ele>737.818725528</ele><time>2008-10-29T22:26:02Z</time></trkpt>
<trkpt lat="46.23870737" lon="6.92928152"><ele>739.8183595272</ele><time>2008-10-29T22:26:02Z</time></trkpt>
<trkpt lat="46.23872419" lon="6.92773780"><ele>759.8195190168</ele><time>2008-10-29T22:26:02Z</time></trkpt>
<trkpt lat="46.23900901" lon="6.92756361"><ele>758.8189697352</ele><time>2008-10-29T22:26:02Z</time></trkpt>
<trkpt lat="46.23960247" lon="6.92721500"><ele>763.8178101312</ele><time>2008-10-29T22:26:02Z</time></trkpt>
<trkpt lat="46.23996088" lon="6.92752035"><ele>771.8167112784</ele><time>2008-10-29T22:26:02Z</time></trkpt>
<trkpt lat="46.24041510" lon="6.92796201"><ele>764.8153077552</ele><time>2008-10-29T22:26:02Z</time></trkpt>
<trkpt lat="46.24141580" lon="6.92819272"><ele>761.8126830264</ele><time>2008-10-29T22:26:02Z</time></trkpt>
<trkpt lat="46.24239208" lon="6.92828645"><ele>763.8102416424</ele><time>2008-10-29T22:26:02Z</time></trkpt>
<trkpt lat="46.24332154" lon="6.92855215"><ele>762.8078001624</ele><time>2008-10-29T22:26:02Z</time></trkpt>
<trkpt lat="46.24403617" lon="6.92868265"><ele>765.8059693248</ele><time>2008-10-29T22:26:02Z</time></trkpt>
<trkpt lat="46.24479902" lon="6.92894993"><ele>769.8038940696</ele><time>2008-10-29T22:26:02Z</time></trkpt>
<trkpt lat="46.24525200" lon="6.92911721"><ele>767.8026732816</ele><time>2008-10-29T22:26:02Z</time></trkpt>
<trkpt lat="46.24567436" lon="6.92777531"><ele>781.8027343848</ele><time>2008-10-29T22:26:02Z</time></trkpt>
<trkpt lat="46.24586538" lon="6.92791074"><ele>772.802185152</ele><time>2008-10-29T22:26:02Z</time></trkpt>
<trkpt lat="46.24598625" lon="6.92832128"><ele>775.8015747336</ele><time>2008-10-29T22:26:02Z</time></trkpt>
<trkpt lat="46.24658452" lon="6.92903609"><ele>782.7995605344</ele><time>2008-10-29T22:26:02Z</time></trkpt>
<trkpt lat="46.24684725" lon="6.92923947"><ele>780.798767076</ele><time>2008-10-29T22:26:02Z</time></trkpt>
<trkpt lat="46.24722666" lon="6.92892715"><ele>794.7980957448</ele><time>2008-10-29T22:26:02Z</time></trkpt>
<trkpt lat="46.24760685" lon="6.92878635"><ele>805.7973023976</ele><time>2008-10-29T22:26:02Z</time></trkpt>
<trkpt lat="46.24789153" lon="6.92857783"><ele>819.7967529864</ele><time>2008-10-29T22:26:02Z</time></trkpt>
<trkpt lat="46.24827156" lon="6.92840273"><ele>832.7959593984</ele><time>2008-10-29T22:26:02Z</time></trkpt>
<trkpt lat="46.24888897" lon="6.92808815"><ele>850.7947386408</ele><time>2008-10-29T22:26:02Z</time></trkpt>
<trkpt lat="46.24896022" lon="6.92805318"><ele>852.7946167848</ele><time>2008-10-29T22:26:02Z</time></trkpt>
<trkpt lat="46.24893456" lon="6.92764172"><ele>864.7949829288</ele><time>2008-10-29T22:26:02Z</time></trkpt>
<trkpt lat="46.24883656" lon="6.92702510"><ele>883.7957153616</ele><time>2008-10-29T22:26:02Z</time></trkpt>
<trkpt lat="46.24890641" lon="6.92668137"><ele>897.7958374248</ele><time>2008-10-29T22:26:02Z</time></trkpt>
<trkpt lat="46.24947606" lon="6.92633292"><ele>921.7947387792</ele><time>2008-10-29T22:26:02Z</time></trkpt>
<trkpt lat="46.24952304" lon="6.92619524"><ele>927.7947386664</ele><time>2008-10-29T22:26:02Z</time></trkpt>
<trkpt lat="46.24926015" lon="6.92595756"><ele>934.7955932448</ele><time>2008-10-29T22:26:02Z</time></trkpt>
<trkpt lat="46.24918797" lon="6.92578671"><ele>937.7958984456</ele><time>2008-10-29T22:26:02Z</time></trkpt>
<trkpt lat="46.24920896" lon="6.92516896"><ele>953.7963256776</ele><time>2008-10-29T22:26:02Z</time></trkpt>
<trkpt lat="46.24899179" lon="6.92451916"><ele>971.7973631832</ele><time>2008-10-29T22:26:02Z</time></trkpt>
<trkpt lat="46.24901403" lon="6.92417587"><ele>981.7976073432</ele><time>2008-10-29T22:26:02Z</time></trkpt>
<trkpt lat="46.24894107" lon="6.92383349"><ele>987.79803456</ele><time>2008-10-29T22:26:02Z</time></trkpt>
<trkpt lat="46.24877212" lon="6.92332047"><ele>995.7988282104</ele><time>2008-10-29T22:26:02Z</time></trkpt>
<trkpt lat="46.24843640" lon="6.92277473"><ele>1001.8001097816</ele><time>2008-10-29T22:26:02Z</time></trkpt>
<trkpt lat="46.24800470" lon="6.92205838"><ele>1017.8016967776</ele><time>2008-10-29T22:26:02Z</time></trkpt>
<trkpt lat="46.24781147" lon="6.92144269"><ele>1030.802734428</ele><time>2008-10-29T22:26:02Z</time></trkpt>
<trkpt lat="46.24747261" lon="6.92021087"><ele>1062.8044432464</ele><time>2008-10-29T22:26:02Z</time></trkpt>
<trkpt lat="46.24715958" lon="6.91942480"><ele>1086.8059082736</ele><time>2008-10-29T22:26:02Z</time></trkpt>
<trkpt lat="46.24703916" lon="6.91911719"><ele>1095.8063965464</ele><time>2008-10-29T22:26:02Z</time></trkpt>
<trkpt lat="46.24710851" lon="6.91867054"><ele>1113.8066406576</ele><time>2008-10-29T22:26:02Z</time></trkpt>
<trkpt lat="46.24720371" lon="6.91866963"><ele>1115.8063965768</ele><time>2008-10-29T22:26:02Z</time></trkpt>
<trkpt lat="46.24744187" lon="6.91870166"><ele>1121.8057862544</ele><time>2008-10-29T22:26:02Z</time></trkpt>
<trkpt lat="46.24782268" lon="6.91869801"><ele>1132.8048097224</ele><time>2008-10-29T22:26:02Z</time></trkpt>
<trkpt lat="46.24837040" lon="6.91876138"><ele>1148.803466676</ele><time>2008-10-29T22:26:02Z</time></trkpt>
<trkpt lat="46.24884641" lon="6.91875683"><ele>1160.802368256</ele><time>2008-10-29T22:26:02Z</time></trkpt>
<trkpt lat="46.24934622" lon="6.91875204"><ele>1169.8011475152</ele><time>2008-10-29T22:26:02Z</time></trkpt>
<trkpt lat="46.24994123" lon="6.91874634"><ele>1181.7996827256</ele><time>2008-10-29T22:26:02Z</time></trkpt>
<trkpt lat="46.25077267" lon="6.91839529"><ele>1201.7979737424</ele><time>2008-10-29T22:26:02Z</time></trkpt>
<trkpt lat="46.25134277" lon="6.91814966"><ele>1214.7967528248</ele><time>2008-10-29T22:26:02Z</time></trkpt>
<trkpt lat="46.25188876" lon="6.91783564"><ele>1237.795776372</ele><time>2008-10-29T22:26:02Z</time></trkpt>
<trkpt lat="46.25191208" lon="6.91773249"><ele>1239.795776436</ele><time>2008-10-29T22:26:02Z</time></trkpt>
<trkpt lat="46.25229384" lon="6.91793469"><ele>1245.794677824</ele><time>2008-10-29T22:26:02Z</time></trkpt>
<trkpt lat="46.25288901" lon="6.91796329"><ele>1254.7932129384</ele><time>2008-10-29T22:26:02Z</time></trkpt>
<trkpt lat="46.25324522" lon="6.91778832"><ele>1254.792480504</ele><time>2008-10-29T22:26:02Z</time></trkpt>
<trkpt lat="46.25288774" lon="6.91768882"><ele>1258.7934569064</ele><time>2008-10-29T22:26:02Z</time></trkpt>
<trkpt lat="46.25252899" lon="6.91731485"><ele>1257.7945556784</ele><time>2008-10-29T22:26:02Z</time></trkpt>
<trkpt lat="46.25238350" lon="6.91673297"><ele>1264.7954102568</ele><time>2008-10-29T22:26:02Z</time></trkpt>
<trkpt lat="46.25228607" lon="6.91625357"><ele>1275.7960205136</ele><time>2008-10-29T22:26:02Z</time></trkpt>
<trkpt lat="46.25199920" lon="6.91598185"><ele>1275.7969970928</ele><time>2008-10-29T22:26:02Z</time></trkpt>
<trkpt lat="46.25273812" lon="6.91621491"><ele>1286.7949217568</ele><time>2008-10-29T22:26:02Z</time></trkpt>
<trkpt lat="46.25407206" lon="6.91644225"><ele>1305.7916259528</ele><time>2008-10-29T22:26:02Z</time></trkpt>
<trkpt lat="46.25395179" lon="6.91616892"><ele>1315.7921142576</ele><time>2008-10-29T22:26:02Z</time></trkpt>
<trkpt lat="46.25435639" lon="6.91616503"><ele>1317.7911377424</ele><time>2008-10-29T22:26:02Z</time></trkpt>
<trkpt lat="46.25473640" lon="6.91598981"><ele>1325.7902833392</ele><time>2008-10-29T22:26:02Z</time></trkpt>
<trkpt lat="46.25513974" lon="6.91571144"><ele>1339.7895507432</ele><time>2008-10-29T22:26:02Z</time></trkpt>
<trkpt lat="46.25575760" lon="6.91549961"><ele>1357.7882080656</ele><time>2008-10-29T22:26:02Z</time></trkpt>
<trkpt lat="46.25613714" lon="6.91522146"><ele>1378.7875976136</ele><time>2008-10-29T22:26:02Z</time></trkpt>
<trkpt lat="46.25597006" lon="6.91512013"><ele>1378.7880859032</ele><time>2008-10-29T22:26:02Z</time></trkpt>
<trkpt lat="46.25601638" lon="6.91484519"><ele>1389.7882078704</ele><time>2008-10-29T22:26:02Z</time></trkpt>
<trkpt lat="46.25582439" lon="6.91450392"><ele>1400.788940352</ele><time>2008-10-29T22:26:02Z</time></trkpt>
<trkpt lat="46.25534552" lon="6.91389092"><ele>1420.790527476</ele><time>2008-10-29T22:26:02Z</time></trkpt>
<trkpt lat="46.25534440" lon="6.91365075"><ele>1427.79077154</ele><time>2008-10-29T22:26:02Z</time></trkpt>
<trkpt lat="46.25546165" lon="6.91327219"><ele>1441.7907713784</ele><time>2008-10-29T22:26:02Z</time></trkpt>
<trkpt lat="46.25596082" lon="6.91313011"><ele>1458.7896728136</ele><time>2008-10-29T22:26:02Z</time></trkpt>
<trkpt lat="46.25624627" lon="6.91309303"><ele>1470.7890623784</ele><time>2008-10-29T22:26:02Z</time></trkpt>
<trkpt lat="46.25641095" lon="6.91267969"><ele>1490.7889404888</ele><time>2008-10-29T22:26:02Z</time></trkpt>
<trkpt lat="46.25659832" lon="6.91202593"><ele>1504.789062552</ele><time>2008-10-29T22:26:02Z</time></trkpt>
<trkpt lat="46.25657099" lon="6.91127131"><ele>1518.7896729048</ele><time>2008-10-29T22:26:02Z</time></trkpt>
<trkpt lat="46.25628250" lon="6.91065649"><ele>1529.790893676</ele><time>2008-10-29T22:26:02Z</time></trkpt>
<trkpt lat="46.25620821" lon="6.91003958"><ele>1535.7915037728</ele><time>2008-10-29T22:26:02Z</time></trkpt>
<trkpt lat="46.25620419" lon="6.90918181"><ele>1541.7922363992</ele><time>2008-10-29T22:26:02Z</time></trkpt>
<trkpt lat="46.25584445" lon="6.90860200"><ele>1551.7935790584</ele><time>2008-10-29T22:26:02Z</time></trkpt>
<trkpt lat="46.25567978" lon="6.90901536"><ele>1554.7935791544</ele><time>2008-10-29T22:26:02Z</time></trkpt>
<trkpt lat="46.25480078" lon="6.90936706"><ele>1573.7955323112</ele><time>2008-10-29T22:26:02Z</time></trkpt>
<trkpt lat="46.25456133" lon="6.90906059"><ele>1579.7962646328</ele><time>2008-10-29T22:26:02Z</time></trkpt>
<trkpt lat="46.25415479" lon="6.90865282"><ele>1589.797607292</ele><time>2008-10-29T22:26:02Z</time></trkpt>
<trkpt lat="46.25346346" lon="6.90841939"><ele>1594.7994383856</ele><time>2008-10-29T22:26:02Z</time></trkpt>
<trkpt lat="46.25294130" lon="6.90873329"><ele>1601.8004151888</ele><time>2008-10-29T22:26:02Z</time></trkpt>
<trkpt lat="46.25284642" lon="6.90880283"><ele>1602.8006590608</ele><time>2008-10-29T22:26:02Z</time></trkpt>
<trkpt lat="46.25251322" lon="6.90880609"><ele>1609.8013917192</ele><time>2008-10-29T22:26:02Z</time></trkpt>
<trkpt lat="46.25234565" lon="6.90860186"><ele>1613.8020020568</ele><time>2008-10-29T22:26:02Z</time></trkpt>
<trkpt lat="46.25231782" lon="6.90774438"><ele>1625.8027342656</ele><time>2008-10-29T22:26:02Z</time></trkpt>
<trkpt lat="46.25212467" lon="6.90716300"><ele>1634.803710828</ele><time>2008-10-29T22:26:02Z</time></trkpt>
<trkpt lat="46.25188409" lon="6.90661640"><ele>1645.8046874544</ele><time>2008-10-29T22:26:02Z</time></trkpt>
<trkpt lat="46.25183600" lon="6.90651394"><ele>1647.8049316632</ele><time>2008-10-29T22:26:02Z</time></trkpt>
<trkpt lat="46.25124164" lon="6.90665700"><ele>1657.8062743224</ele><time>2008-10-29T22:26:02Z</time></trkpt>
<trkpt lat="46.25055063" lon="6.90649223"><ele>1675.8079833024</ele><time>2008-10-29T22:26:02Z</time></trkpt>
<trkpt lat="46.24983403" lon="6.90595032"><ele>1684.8101805888</ele><time>2008-10-29T22:26:02Z</time></trkpt>
<trkpt lat="46.24942651" lon="6.90533677"><ele>1708.811645616</ele><time>2008-10-29T22:26:02Z</time></trkpt>
<trkpt lat="46.24942376" lon="6.90475356"><ele>1736.8121338872</ele><time>2008-10-29T22:26:02Z</time></trkpt>
<trkpt lat="46.24939817" lon="6.90437642"><ele>1749.8125000632</ele><time>2008-10-29T22:26:02Z</time></trkpt>
<trkpt lat="46.24922848" lon="6.90372623"><ele>1758.8134766256</ele><time>2008-10-29T22:26:02Z</time></trkpt>
<trkpt lat="46.24886757" lon="6.90290639"><ele>1755.8149413984</ele><time>2008-10-29T22:26:02Z</time></trkpt>
<trkpt lat="46.24841259" lon="6.90232765"><ele>1743.8165284128</ele><time>2008-10-29T22:26:02Z</time></trkpt>
<trkpt lat="46.24824240" lon="6.90157456"><ele>1737.8175048</ele><time>2008-10-29T22:26:02Z</time></trkpt>
<trkpt lat="46.24821418" lon="6.90064853"><ele>1733.8183593312</ele><time>2008-10-29T22:26:02Z</time></trkpt>
<trkpt lat="46.24809158" lon="6.89989498"><ele>1726.8192137664</ele><time>2008-10-29T22:26:02Z</time></trkpt>
<trkpt lat="46.24808616" lon="6.89876288"><ele>1721.8201904904</ele><time>2008-10-29T22:26:02Z</time></trkpt>
<trkpt lat="46.24805727" lon="6.89769963"><ele>1708.8210450384</ele><time>2008-10-29T22:26:02Z</time></trkpt>
<trkpt lat="46.24805546" lon="6.89732227"><ele>1705.8214110072</ele><time>2008-10-29T22:26:02Z</time></trkpt>
<trkpt lat="46.24838471" lon="6.89649560"><ele>1708.8211669584</ele><time>2008-10-29T22:26:02Z</time></trkpt>
<trkpt lat="46.24871213" lon="6.89529155"><ele>1713.8214112632</ele><time>2008-10-29T22:26:02Z</time></trkpt>
<trkpt lat="46.24894567" lon="6.89436289"><ele>1710.8215330872</ele><time>2008-10-29T22:26:02Z</time></trkpt>
<trkpt lat="46.24915573" lon="6.89350308"><ele>1706.8217774088</ele><time>2008-10-29T22:26:02Z</time></trkpt>
<trkpt lat="46.24943819" lon="6.89284839"><ele>1718.8215333432</ele><time>2008-10-29T22:26:02Z</time></trkpt>
<trkpt lat="46.24912696" lon="6.89247412"><ele>1719.8226318744</ele><time>2008-10-29T22:26:02Z</time></trkpt>
<trkpt lat="46.24848318" lon="6.89224045"><ele>1716.824340792</ele><time>2008-10-29T22:26:02Z</time></trkpt>
<trkpt lat="46.24814815" lon="6.89186643"><ele>1721.8254394512</ele><time>2008-10-29T22:26:02Z</time></trkpt>
<trkpt lat="46.24771775" lon="6.89145908"><ele>1714.826782176</ele><time>2008-10-29T22:26:02Z</time></trkpt>
<trkpt lat="46.24721361" lon="6.89057217"><ele>1699.828735464</ele><time>2008-10-29T22:26:02Z</time></trkpt>
<trkpt lat="46.24701887" lon="6.88968216"><ele>1694.829956028</ele><time>2008-10-29T22:26:02Z</time></trkpt>
<trkpt lat="46.24694196" lon="6.88855081"><ele>1694.831054832</ele><time>2008-10-29T22:26:02Z</time></trkpt>
<trkpt lat="46.24715264" lon="6.88782823"><ele>1697.8310546232</ele><time>2008-10-29T22:26:02Z</time></trkpt>
<trkpt lat="46.24742952" lon="6.88604144"><ele>1701.8319091056</ele><time>2008-10-29T22:26:02Z</time></trkpt>
<trkpt lat="46.24763599" lon="6.88446121"><ele>1701.83264154</ele><time>2008-10-29T22:26:02Z</time></trkpt>
<trkpt lat="46.24808110" lon="6.88301574"><ele>1705.832641668</ele><time>2008-10-29T22:26:02Z</time></trkpt>
<trkpt lat="46.24874312" lon="6.88211696"><ele>1710.8317871688</ele><time>2008-10-29T22:26:02Z</time></trkpt>
<trkpt lat="46.24957409" lon="6.88169674"><ele>1720.8300781704</ele><time>2008-10-29T22:26:02Z</time></trkpt>
<trkpt lat="46.24985580" lon="6.88090475"><ele>1738.8300781368</ele><time>2008-10-29T22:26:02Z</time></trkpt>
<trkpt lat="46.25004196" lon="6.88004512"><ele>1732.8303223944</ele><time>2008-10-29T22:26:02Z</time></trkpt>
<trkpt lat="46.25030070" lon="6.87942489"><ele>1731.8302001376</ele><time>2008-10-29T22:26:02Z</time></trkpt>
<trkpt lat="46.25084522" lon="6.87883603"><ele>1737.8293456704</ele><time>2008-10-29T22:26:02Z</time></trkpt>
<trkpt lat="46.25148544" lon="6.87834909"><ele>1742.8281251064</ele><time>2008-10-29T22:26:02Z</time></trkpt>
<trkpt lat="46.25186113" lon="6.87731591"><ele>1732.8281250912</ele><time>2008-10-29T22:26:02Z</time></trkpt>
<trkpt lat="46.25211969" lon="6.87666134"><ele>1731.8280028344</ele><time>2008-10-29T22:26:02Z</time></trkpt>
<trkpt lat="46.25202243" lon="6.87625063"><ele>1732.828491156</ele><time>2008-10-29T22:26:02Z</time></trkpt>
<trkpt lat="46.25156715" lon="6.87563777"><ele>1744.830078024</ele><time>2008-10-29T22:26:02Z</time></trkpt>
<trkpt lat="46.25170481" lon="6.87460704"><ele>1744.8305663136</ele><time>2008-10-29T22:26:02Z</time></trkpt>
<trkpt lat="46.25117898" lon="6.87416648"><ele>1748.8322754552</ele><time>2008-10-29T22:26:02Z</time></trkpt>
<trkpt lat="46.25086597" lon="6.87344924"><ele>1743.833618244</ele><time>2008-10-29T22:26:02Z</time></trkpt>
<trkpt lat="46.25071748" lon="6.87231858"><ele>1733.8348389528</ele><time>2008-10-29T22:26:02Z</time></trkpt>
<trkpt lat="46.25097532" lon="6.87152677"><ele>1728.8348387928</ele><time>2008-10-29T22:26:02Z</time></trkpt>
<trkpt lat="46.25109191" lon="6.87104522"><ele>1725.8349609216</ele><time>2008-10-29T22:26:02Z</time></trkpt>
<trkpt lat="46.25078199" lon="6.87094553"><ele>1722.8358154848</ele><time>2008-10-29T22:26:02Z</time></trkpt>
<trkpt lat="46.25016024" lon="6.87036877"><ele>1719.8377685472</ele><time>2008-10-29T22:26:02Z</time></trkpt>
<trkpt lat="46.24963387" lon="6.86982534"><ele>1710.8393553528</ele><time>2008-10-29T22:26:02Z</time></trkpt>
<trkpt lat="46.24917820" lon="6.86914395"><ele>1710.8410643664</ele><time>2008-10-29T22:26:02Z</time></trkpt>
<trkpt lat="46.24827033" lon="6.86846732"><ele>1721.8437500064</ele><time>2008-10-29T22:26:02Z</time></trkpt>
<trkpt lat="46.24805613" lon="6.86846957"><ele>1719.844238232</ele><time>2008-10-29T22:26:02Z</time></trkpt>
<trkpt lat="46.24743732" lon="6.86847607"><ele>1725.8458252128</ele><time>2008-10-29T22:26:02Z</time></trkpt>
<trkpt lat="46.24712913" lon="6.86871945"><ele>1714.8463134552</ele><time>2008-10-29T22:26:02Z</time></trkpt>
<trkpt lat="46.24655463" lon="6.86807365"><ele>1702.8482665344</ele><time>2008-10-29T22:26:02Z</time></trkpt>
<trkpt lat="46.24645578" lon="6.86735425"><ele>1698.8489991456</ele><time>2008-10-29T22:26:02Z</time></trkpt>
<trkpt lat="46.24640470" lon="6.86666865"><ele>1687.8497315328</ele><time>2008-10-29T22:26:02Z</time></trkpt>
<trkpt lat="46.24606750" lon="6.86588316"><ele>1677.8511963864</ele><time>2008-10-29T22:26:02Z</time></trkpt>
<trkpt lat="46.24580203" lon="6.86516552"><ele>1679.8522949496</ele><time>2008-10-29T22:26:02Z</time></trkpt>
<trkpt lat="46.24584387" lon="6.86403298"><ele>1681.853149368</ele><time>2008-10-29T22:26:02Z</time></trkpt>
<trkpt lat="46.24591003" lon="6.86300309"><ele>1685.8537597056</ele><time>2008-10-29T22:26:02Z</time></trkpt>
<trkpt lat="46.24597565" lon="6.86187028"><ele>1693.8544920912</ele><time>2008-10-29T22:26:02Z</time></trkpt>
<trkpt lat="46.24611529" lon="6.86125128"><ele>1694.854736268</ele><time>2008-10-29T22:26:02Z</time></trkpt>
<trkpt lat="46.24610967" lon="6.86015354"><ele>1691.8555908312</ele><time>2008-10-29T22:26:02Z</time></trkpt>
<trkpt lat="46.24605890" lon="6.85953656"><ele>1680.8562012984</ele><time>2008-10-29T22:26:02Z</time></trkpt>
<trkpt lat="46.24627099" lon="6.85912262"><ele>1678.8559570896</ele><time>2008-10-29T22:26:02Z</time></trkpt>
<trkpt lat="46.24660084" lon="6.85846727"><ele>1673.8557127848</ele><time>2008-10-29T22:26:02Z</time></trkpt>
<trkpt lat="46.24683584" lon="6.85788154"><ele>1671.8555908008</ele><time>2008-10-29T22:26:02Z</time></trkpt>
<trkpt lat="46.24695272" lon="6.85746861"><ele>1666.8557128656</ele><time>2008-10-29T22:26:02Z</time></trkpt>
<trkpt lat="46.24721434" lon="6.85743150"><ele>1666.855102656</ele><time>2008-10-29T22:26:02Z</time></trkpt>
<trkpt lat="46.24785536" lon="6.85711587"><ele>1660.85375982</ele><time>2008-10-29T22:26:02Z</time></trkpt>
<trkpt lat="46.24813848" lon="6.85663253"><ele>1654.8535154832</ele><time>2008-10-29T22:26:02Z</time></trkpt>
<trkpt lat="46.24844239" lon="6.85556572"><ele>1651.853637612</ele><time>2008-10-29T22:26:02Z</time></trkpt>
<trkpt lat="46.24879549" lon="6.85480715"><ele>1643.853393516</ele><time>2008-10-29T22:26:02Z</time></trkpt>
<trkpt lat="46.24946172" lon="6.85476568"><ele>1643.8518067272</ele><time>2008-10-29T22:26:02Z</time></trkpt>
<trkpt lat="46.24974590" lon="6.85448815"><ele>1635.8513184864</ele><time>2008-10-29T22:26:02Z</time></trkpt>
<trkpt lat="46.25036151" lon="6.85386397"><ele>1637.8503416664</ele><time>2008-10-29T22:26:02Z</time></trkpt>
<trkpt lat="46.25105082" lon="6.85368499"><ele>1635.8487548136</ele><time>2008-10-29T22:26:02Z</time></trkpt>
<trkpt lat="46.25142984" lon="6.85333781"><ele>1622.8481444928</ele><time>2008-10-29T22:26:02Z</time></trkpt>
<trkpt lat="46.25109415" lon="6.85286109"><ele>1617.8493653616</ele><time>2008-10-29T22:26:02Z</time></trkpt>
<trkpt lat="46.25047285" lon="6.85238747"><ele>1606.851196248</ele><time>2008-10-29T22:26:02Z</time></trkpt>
<trkpt lat="46.24980893" lon="6.85287496"><ele>1602.852416844</ele><time>2008-10-29T22:26:02Z</time></trkpt>
<trkpt lat="46.24950131" lon="6.85322136"><ele>1598.8529053104</ele><time>2008-10-29T22:26:02Z</time></trkpt>
<trkpt lat="46.24917007" lon="6.85360233"><ele>1598.8533936</ele><time>2008-10-29T22:26:02Z</time></trkpt>
<trkpt lat="46.24888322" lon="6.85336526"><ele>1589.8542479712</ele><time>2008-10-29T22:26:02Z</time></trkpt>
<trkpt lat="46.24821752" lon="6.85350966"><ele>1579.8557128248</ele><time>2008-10-29T22:26:02Z</time></trkpt>
<trkpt lat="46.24791007" lon="6.85389036"><ele>1582.8562012104</ele><time>2008-10-29T22:26:02Z</time></trkpt>
<trkpt lat="46.24758096" lon="6.85468297"><ele>1587.8563232904</ele><time>2008-10-29T22:26:02Z</time></trkpt>
<trkpt lat="46.24713018" lon="6.85496228"><ele>1587.8571776448</ele><time>2008-10-29T22:26:02Z</time></trkpt>
<trkpt lat="46.24682184" lon="6.85517143"><ele>1584.8577880632</ele><time>2008-10-29T22:26:02Z</time></trkpt>
<trkpt lat="46.24653819" lon="6.85555186"><ele>1583.8581544008</ele><time>2008-10-29T22:26:02Z</time></trkpt>
<trkpt lat="46.24601618" lon="6.85586622"><ele>1579.8592530768</ele><time>2008-10-29T22:26:02Z</time></trkpt>
<trkpt lat="46.24549664" lon="6.85666083"><ele>1581.8598633504</ele><time>2008-10-29T22:26:02Z</time></trkpt>
<trkpt lat="46.24502241" lon="6.85700897"><ele>1582.8607177368</ele><time>2008-10-29T22:26:02Z</time></trkpt>
<trkpt lat="46.24460001" lon="6.85817988"><ele>1579.8608398656</ele><time>2008-10-29T22:26:02Z</time></trkpt>
<trkpt lat="46.24422238" lon="6.85880141"><ele>1568.861206188</ele><time>2008-10-29T22:26:02Z</time></trkpt>
<trkpt lat="46.24400836" lon="6.85883800"><ele>1564.8616943496</ele><time>2008-10-29T22:26:02Z</time></trkpt>
<trkpt lat="46.24374902" lon="6.85932104"><ele>1568.8619386224</ele><time>2008-10-29T22:26:02Z</time></trkpt>
<trkpt lat="46.24363178" lon="6.85966534"><ele>1565.8619385264</ele><time>2008-10-29T22:26:02Z</time></trkpt>
<trkpt lat="46.24348563" lon="6.85901511"><ele>1551.8627930424</ele><time>2008-10-29T22:26:02Z</time></trkpt>
<trkpt lat="46.24348440" lon="6.85877499"><ele>1548.8630370912</ele><time>2008-10-29T22:26:02Z</time></trkpt>
<trkpt lat="46.24371940" lon="6.85818929"><ele>1541.8629149472</ele><time>2008-10-29T22:26:02Z</time></trkpt>
<trkpt lat="46.24348087" lon="6.85808893"><ele>1535.8635252696</ele><time>2008-10-29T22:26:02Z</time></trkpt>
<trkpt lat="46.24324586" lon="6.85867462"><ele>1539.8636473176</ele><time>2008-10-29T22:26:02Z</time></trkpt>
<trkpt lat="46.24298547" lon="6.85895183"><ele>1531.864013736</ele><time>2008-10-29T22:26:02Z</time></trkpt>
<trkpt lat="46.24291160" lon="6.85847236"><ele>1528.8646241544</ele><time>2008-10-29T22:26:02Z</time></trkpt>
<trkpt lat="46.24309812" lon="6.85771567"><ele>1520.8647461232</ele><time>2008-10-29T22:26:02Z</time></trkpt>
<trkpt lat="46.24338248" lon="6.85747249"><ele>1518.8642577696</ele><time>2008-10-29T22:26:02Z</time></trkpt>
<trkpt lat="46.24397236" lon="6.85647133"><ele>1512.863647368</ele><time>2008-10-29T22:26:02Z</time></trkpt>
<trkpt lat="46.24456222" lon="6.85547014"><ele>1506.8630369664</ele><time>2008-10-29T22:26:02Z</time></trkpt>
<trkpt lat="46.24498370" lon="6.85412769"><ele>1498.8630370152</ele><time>2008-10-29T22:26:02Z</time></trkpt>
<trkpt lat="46.24528687" lon="6.85292372"><ele>1486.8632813856</ele><time>2008-10-29T22:26:02Z</time></trkpt>
<trkpt lat="46.24573355" lon="6.85185541"><ele>1469.8630370016</ele><time>2008-10-29T22:26:02Z</time></trkpt>
<trkpt lat="46.24665675" lon="6.85088484"><ele>1458.8615723904</ele><time>2008-10-29T22:26:02Z</time></trkpt>
<trkpt lat="46.24739420" lon="6.85080824"><ele>1459.8598634088</ele><time>2008-10-29T22:26:02Z</time></trkpt>
<trkpt lat="46.24772042" lon="6.84946672"><ele>1448.8601075064</ele><time>2008-10-29T22:26:02Z</time></trkpt>
<trkpt lat="46.24816832" lon="6.84863847"><ele>1441.8597412176</ele><time>2008-10-29T22:26:02Z</time></trkpt>
<trkpt lat="46.24868959" lon="6.84818680"><ele>1430.8587645912</ele><time>2008-10-29T22:26:02Z</time></trkpt>
<trkpt lat="46.24944940" lon="6.84783545"><ele>1429.8572996904</ele><time>2008-10-29T22:26:02Z</time></trkpt>
<trkpt lat="46.24977865" lon="6.84707707"><ele>1427.8570557864</ele><time>2008-10-29T22:26:02Z</time></trkpt>
<trkpt lat="46.24904336" lon="6.84756540"><ele>1420.8585204312</ele><time>2008-10-29T22:26:02Z</time></trkpt>
<trkpt lat="46.24773740" lon="6.84816284"><ele>1420.861084104</ele><time>2008-10-29T22:26:02Z</time></trkpt>
<trkpt lat="46.24650786" lon="6.84972002"><ele>1427.8629149568</ele><time>2008-10-29T22:26:02Z</time></trkpt>
<trkpt lat="46.24396661" lon="6.85077673"><ele>1425.8681641584</ele><time>2008-10-29T22:26:02Z</time></trkpt>
<trkpt lat="46.24308618" lon="6.85082056"><ele>1426.8702392688</ele><time>2008-10-29T22:26:02Z</time></trkpt>
<trkpt lat="46.24016001" lon="6.85109235"><ele>1415.877075276</ele><time>2008-10-29T22:26:02Z</time></trkpt>
<trkpt lat="46.23911208" lon="6.85096648"><ele>1404.8797608216</ele><time>2008-10-29T22:26:02Z</time></trkpt>
<trkpt lat="46.23842348" lon="6.85128264"><ele>1400.8811036424</ele><time>2008-10-29T22:26:02Z</time></trkpt>
<trkpt lat="46.23752140" lon="6.85173831"><ele>1396.882934448</ele><time>2008-10-29T22:26:02Z</time></trkpt>
<trkpt lat="46.23712018" lon="6.85239436"><ele>1392.8834229144</ele><time>2008-10-29T22:26:02Z</time></trkpt>
<trkpt lat="46.23645681" lon="6.85298463"><ele>1387.8845215584</ele><time>2008-10-29T22:26:02Z</time></trkpt>
<trkpt lat="46.23612556" lon="6.85336550"><ele>1379.8850098968</ele><time>2008-10-29T22:26:02Z</time></trkpt>
<trkpt lat="46.23643674" lon="6.85370515"><ele>1379.8840333176</ele><time>2008-10-29T22:26:02Z</time></trkpt>
<trkpt lat="46.23677137" lon="6.85397595"><ele>1378.8829344816</ele><time>2008-10-29T22:26:02Z</time></trkpt>
<trkpt lat="46.23696568" lon="6.85472848"><ele>1374.8819580792</ele><time>2008-10-29T22:26:02Z</time></trkpt>
<trkpt lat="46.23697011" lon="6.85558595"><ele>1370.8812255168</ele><time>2008-10-29T22:26:02Z</time></trkpt>
<trkpt lat="46.23714079" lon="6.85637303"><ele>1367.8802491464</ele><time>2008-10-29T22:26:02Z</time></trkpt>
<trkpt lat="46.23714096" lon="6.85640733"><ele>1367.8801269216</ele><time>2008-10-29T22:26:02Z</time></trkpt>
</trkseg></trk></gpx>